Home   Weather   Kenora   Past weeks

Flag for Canada Past Weather in Kenora, Ontario, Canada — Yesterday and Last 2 Weeks

41 °F

Light rain. Fog.

Feels Like: 34 °F
Forecast: 43 / 47 °F
Wind: 12 mph from South

Location: Kenora

Current Time: Oct 27, 2016 at 12:18:10 AM

Latest Report: Oct 26, 2016 at 11:00 PM

Visibility: 5 mi

Pressure: 30.12 "Hg

Humidity: 93%

Dew Point: 39 °F

Location of KenoraLocation

Past Weather in Kenora — Graph


Kenora Temperature Yesterday

Maximum temperature yesterday: 41 °F (at 2:00 PM)
Minimum temperature yesterday: 36 °F (at 2:00 AM)
Average temperature yesterday: 38 °F

High & Low Weather Summary for the Past Weeks

High63 °F (Oct 15, 3:00 PM)100% (Oct 11, 11:00 PM)30.48 "Hg (Oct 11, 11:00 PM)
Low30 °F (Oct 13, 1:00 AM)39% (Oct 15, 3:00 PM)29.43 "Hg (Oct 15, 7:00 AM)
Average41 °F80%30.01 "Hg
* Reported Oct 11 11:00 PM — Oct 26 11:00 PM, Kenora, Weather by CustomWeather, © 2016

Note: Actual official high and low records may vary slightly from our data, if they occured in-between our weather recording intervals... More about our weather records


Kenora Weather History for the Previous 24 Hours

Scroll right to see more
Time TempWeatherWind HumidityBarometerVisibility
11:00 PM
Wed, Oct 26
41 °FLight rain. Fog.12 mph93%30.12 "Hg5 mi
10:51 PM41 °FLight rain. Fog.12 mph93%30.12 "Hg5 mi
10:00 PM39 °FLight rain. Fog.13 mph100%30.13 "Hg2 mi
9:00 PM41 °FLight rain. Mostly cloudy.13 mph87%30.14 "Hg12 mi
8:00 PM39 °FLight rain. Mostly cloudy.18 mph93%30.14 "Hg12 mi
7:00 PM41 °FLight rain. Mostly cloudy.13 mph87%30.17 "Hg12 mi
6:00 PM39 °FLight rain. Overcast.10 mph93%30.17 "Hg9 mi
5:00 PM39 °FLight rain. Mostly cloudy.14 mph93%30.18 "Hg10 mi
4:00 PM41 °FLight rain. Mostly cloudy.13 mph81%30.19 "Hg10 mi
3:00 PM41 °FOvercast.13 mph81%30.20 "Hg15 mi
2:00 PM41 °FMostly cloudy.16 mph81%30.22 "Hg15 mi
1:00 PM39 °FMostly cloudy.14 mph87%30.24 "Hg15 mi
12:00 PM39 °FMostly cloudy.10 mph81%30.27 "Hg15 mi
11:00 AM37 °FOvercast.12 mph81%30.28 "Hg15 mi
10:00 AM37 °FOvercast.15 mph81%30.30 "Hg15 mi
9:00 AM36 °FLow clouds.9 mph87%30.30 "Hg15 mi
8:00 AM36 °FLow clouds.10 mph87%30.29 "Hg15 mi
7:00 AM36 °FMostly cloudy.10 mph87%30.30 "Hg15 mi
6:00 AM36 °FPartly cloudy.9 mph87%30.31 "Hg15 mi
5:00 AM36 °FPartly cloudy.8 mph87%30.32 "Hg15 mi
4:00 AM36 °FPartly cloudy.9 mph81%30.34 "Hg15 mi
3:00 AM36 °FPassing clouds.9 mph75%30.34 "Hg15 mi
2:00 AM36 °FPartly cloudy.9 mph75%30.35 "Hg15 mi
1:00 AM37 °FPartly cloudy.10 mph70%30.34 "Hg15 mi
12:00 AM37 °FPartly cloudy.9 mph70%30.34 "Hg15 mi
Weather by CustomWeather, © 2016

See weather overviewHow to use our weather pages